Terminal Aerodrome Forecast
Issued by NWS Cleveland, OH

Home | Current Version | Previous Version | Text Only | Print | Product List | Glossary On
Versions: 1 2 3 4 5 6 7 8 9 10 11 12 13 14 15 16 17 18
000
FTUS41 KCLE 271100
TAFCAK
TAF
KCAK 271137Z 2712/2812 18007KT P6SM OVC040
      TEMPO 2716/2718 5SM -SHRA BR
     FM271800 20010KT P6SM SCT035 BKN060
     FM280100 22010KT 4SM -RA BR SCT015 OVC025
      TEMPO 2802/2804 OVC015
     FM280400 23010KT 4SM -RA BR BKN007 OVC015
     FM280900 31008KT 4SM -RA BR OVC007=

USA.gov is the U.S. government's official web portal to all federal, state and local government web resources and services.